Date String (YYYY-MM-DD hh:mm:ss) UTC,Instrument flags,Ambient pressure (hPa),Sample flow (lpm),Bypass flow (lpm),Sample temperature (°C),Ambient temperature (°C),ASC tube jacket temperature (°C),LED temperature (°C),Box temperature (°C),Sample RH (%),Span deviation,Mass concentration (μg/m³),Mass concentration (μg/m³),Mass concentration (μg/m³)
DateTimeUTC,F1_M11,P_M11,Q1_M11,Q2_M11,T1_M11,T2_M11,T3_M11,T4_M11,T5_M11,U1_M11,ZSPAN_M11,X0_M11,X2_M11,X1_M11
2022-01-26 01:00:00,,0830.6,5.01,0.00,21.7,22.7,00.0,30.7,23.7,11.4,0000.0,0003.37,0003.14,0002.97
2022-01-26 01:01:00,,0830.6,4.98,0.00,21.8,22.5,00.0,30.7,23.8,11.4,0000.0,0003.36,0003.13,0002.94
2022-01-26 01:02:00,,0830.6,5.00,0.00,21.8,22.2,00.0,30.7,23.7,11.4,0000.0,0003.38,0003.13,0002.92
2022-01-26 01:03:00,,0830.6,4.99,0.00,21.8,22.0,00.0,30.7,23.6,11.5,0000.0,0003.30,0003.10,0002.90
2022-01-26 01:04:00,,0830.6,5.01,0.00,21.8,21.7,00.0,30.7,23.5,11.5,0000.0,0003.25,0003.09,0002.90
2022-01-26 01:05:00,,0830.6,5.00,0.00,21.7,21.5,00.0,30.7,23.4,11.6,0000.0,0003.33,0003.13,0002.91
2022-01-26 01:06:00,,0830.6,4.99,0.00,21.7,21.3,00.0,30.7,23.3,11.6,0000.0,0003.44,0003.16,0002.95
2022-01-26 01:07:00,,0830.6,5.00,0.00,21.7,21.2,00.0,30.7,23.3,11.6,0000.0,0004.21,0003.17,0002.96
2022-01-26 01:08:00,,0830.6,5.00,0.00,21.6,21.1,00.0,30.7,23.3,11.7,0000.0,0004.83,0003.19,0002.98
2022-01-26 01:09:00,,0830.6,5.01,0.00,21.6,20.9,00.0,30.7,23.2,11.7,0000.0,0004.80,0003.20,0003.03
2022-01-26 01:10:00,,0830.6,5.00,0.00,21.5,20.8,00.0,30.7,23.1,11.8,0000.0,0004.79,0003.20,0003.07
2022-01-26 01:11:00,,0830.6,5.00,0.00,21.5,20.7,00.0,30.7,23.1,11.8,0000.0,0004.86,0003.23,0003.10
2022-01-26 01:12:00,,0830.6,5.00,0.00,21.5,20.7,00.0,30.6,23.1,11.9,0000.0,0004.95,0003.26,0003.13
2022-01-26 01:13:00,,0830.5,5.00,0.00,21.4,20.6,00.0,30.6,23.0,11.9,0000.0,0004.97,0003.28,0003.16
2022-01-26 01:14:00,,0830.6,5.00,0.00,21.4,20.6,00.0,30.6,23.0,11.9,0000.0,0005.07,0003.31,0003.18
2022-01-26 01:15:00,,0830.6,5.00,0.00,21.4,20.5,00.0,30.6,23.0,12.0,0000.0,0005.17,0003.34,0003.18
2022-01-26 01:16:00,,0830.5,5.00,0.00,21.3,20.6,00.0,30.5,22.9,12.0,0000.0,0005.12,0003.33,0003.19
2022-01-26 01:17:00,,0830.6,4.99,0.00,21.4,21.3,00.0,30.6,23.2,11.9,0000.0,0004.99,0003.30,0003.19
2022-01-26 01:18:00,,0830.6,5.01,0.00,21.6,22.3,00.0,30.6,23.5,11.8,0000.0,0004.65,0003.30,0003.18
2022-01-26 01:19:00,,0830.5,4.99,0.00,21.7,22.7,00.0,30.6,23.7,11.7,0000.0,0003.68,0003.30,0003.19
2022-01-26 01:20:00,,0830.5,5.01,0.00,21.8,22.4,00.0,30.7,23.7,11.6,0000.0,0003.70,0003.30,0003.18
2022-01-26 01:21:00,,0830.6,5.00,0.00,21.8,22.1,00.0,30.7,23.6,11.6,0000.0,0003.69,0003.29,0003.17
2022-01-26 01:22:00,,0830.5,5.00,0.00,21.8,21.9,00.0,30.7,23.5,11.6,0000.0,0003.65,0003.28,0003.15
2022-01-26 01:23:00,,0830.6,4.99,0.00,21.7,21.7,00.0,30.7,23.5,11.6,0000.0,0003.66,0003.28,0003.15
2022-01-26 01:24:00,,0830.6,5.00,0.00,21.7,21.5,00.0,30.7,23.4,11.6,0000.0,0003.72,0003.29,0003.14
2022-01-26 01:25:00,,0830.6,5.01,0.00,21.7,21.4,00.0,30.7,23.4,11.6,0000.0,0003.65,0003.27,0003.14
2022-01-26 01:26:00,,0830.6,5.00,0.00,21.7,21.3,00.0,30.7,23.3,11.6,0000.0,0003.68,0003.27,0003.14
2022-01-26 01:27:00,,0830.6,5.01,0.00,21.7,21.2,00.0,30.7,23.3,11.5,0000.0,0003.75,0003.28,0003.14
2022-01-26 01:28:00,,0830.5,4.98,0.00,21.6,21.0,00.0,30.7,23.2,11.5,0000.0,0003.88,0003.28,0003.14
2022-01-26 01:29:00,,0830.6,5.00,0.00,21.6,20.9,00.0,30.7,23.2,11.6,0000.0,0003.91,0003.29,0003.15
2022-01-26 01:30:00,,0830.6,5.00,0.00,21.5,20.8,00.0,30.7,23.1,11.4,0000.0,0004.55,0003.28,0003.13
2022-01-26 01:31:00,,0830.5,5.00,0.00,21.5,20.7,00.0,30.6,23.1,11.5,0000.0,0005.10,0003.27,0003.13
2022-01-26 01:32:00,,0830.6,5.00,0.00,21.4,20.7,00.0,30.6,23.0,11.5,0000.0,0005.24,0003.30,0003.14
2022-01-26 01:33:00,,0830.6,5.00,0.00,21.4,20.7,00.0,30.6,23.0,11.5,0000.0,0005.39,0003.33,0003.15
2022-01-26 01:34:00,,0830.6,5.00,0.00,21.4,20.7,00.0,30.6,23.0,11.6,0000.0,0005.36,0003.32,0003.16
2022-01-26 01:35:00,,0830.6,4.99,0.00,21.4,20.6,00.0,30.6,23.0,11.5,0000.0,0005.38,0003.32,0003.17
2022-01-26 01:36:00,,0830.6,5.00,0.00,21.4,20.8,00.0,30.6,23.0,11.5,0000.0,0005.50,0003.33,0003.17
2022-01-26 01:37:00,,0830.7,5.00,0.00,21.5,21.7,00.0,30.6,23.3,11.5,0000.0,0005.47,0003.32,0003.17
2022-01-26 01:38:00,,0830.7,5.01,0.00,21.7,22.5,00.0,30.6,23.6,11.3,0000.0,0005.53,0003.33,0003.18
2022-01-26 01:39:00,,0830.6,4.99,0.00,21.8,22.6,00.0,30.7,23.7,11.2,0000.0,0005.46,0003.33,0003.17
2022-01-26 01:40:00,,0830.6,5.00,0.00,21.8,22.3,00.0,30.7,23.7,11.2,0000.0,0005.43,0003.33,0003.17
2022-01-26 01:41:00,,0830.6,4.99,0.00,21.8,22.0,00.0,30.7,23.6,11.1,0000.0,0004.83,0003.34,0003.19
2022-01-26 01:42:00,,0830.6,4.99,0.00,21.8,21.8,00.0,30.7,23.5,11.1,0000.0,0004.29,0003.33,0003.19
2022-01-26 01:43:00,,0830.6,5.01,0.00,21.7,21.6,00.0,30.7,23.4,11.1,0000.0,0004.19,0003.31,0003.17
2022-01-26 01:44:00,,0830.6,5.01,0.00,21.7,21.4,00.0,30.7,23.4,11.1,0000.0,0004.05,0003.29,0003.16
2022-01-26 01:45:00,,0830.6,4.99,0.00,21.7,21.3,00.0,30.7,23.3,11.1,0000.0,0004.02,0003.28,0003.14
2022-01-26 01:46:00,,0830.7,4.99,0.00,21.7,21.2,00.0,30.7,23.3,11.1,0000.0,0003.94,0003.26,0003.13
2022-01-26 01:47:00,,0830.7,5.00,0.00,21.7,21.1,00.0,30.7,23.3,11.0,0000.0,0003.78,0003.24,0003.12
2022-01-26 01:48:00,,0830.7,5.01,0.00,21.6,21.1,00.0,30.7,23.2,11.0,0000.0,0003.72,0003.21,0003.09
2022-01-26 01:49:00,,0830.7,5.00,0.00,21.6,21.0,00.0,30.7,23.2,11.0,0000.0,0003.62,0003.19,0003.06
2022-01-26 01:50:00,,0830.7,5.00,0.00,21.6,21.0,00.0,30.6,23.2,11.0,0000.0,0003.55,0003.18,0003.05
2022-01-26 01:51:00,,0830.7,5.00,0.00,21.6,20.9,00.0,30.6,23.2,11.1,0000.0,0003.52,0003.16,0002.99
2022-01-26 01:52:00,,0830.7,5.00,0.00,21.5,20.9,00.0,30.6,23.2,11.1,0000.0,0003.44,0003.15,0002.98
2022-01-26 01:53:00,,0830.7,5.00,0.00,21.5,20.8,00.0,30.6,23.1,11.1,0000.0,0003.47,0003.16,0002.99
2022-01-26 01:54:00,,0830.7,5.01,0.00,21.5,20.8,00.0,30.6,23.1,11.1,0000.0,0003.43,0003.14,0002.98
2022-01-26 01:55:00,,0830.7,5.00,0.00,21.5,20.8,00.0,30.6,23.1,11.1,0000.0,0003.40,0003.13,0002.98
2022-01-26 01:56:00,,0830.7,4.99,0.00,21.5,21.1,00.0,30.6,23.2,11.1,0000.0,0003.37,0003.12,0002.97
2022-01-26 01:57:00,,0830.7,5.00,0.00,21.6,22.0,00.0,30.6,23.5,11.0,0000.0,0003.36,0003.12,0002.98
2022-01-26 01:58:00,,0830.7,5.01,0.00,21.8,22.7,00.0,30.7,23.8,10.9,0000.0,0003.43,0003.15,0003.00
2022-01-26 01:59:00,,0830.7,4.99,0.00,21.9,22.7,00.0,30.7,23.9,10.9,0000.0,0003.45,0003.16,0003.02
